This is the latest recevied weather packets stored in our database for station/object SA3VCC-15. If no packets are shown the sender has not sent any weather packets the latest 10 day(s).
| Time | Temp. | Humidity | Pressure | Rain* | Wind** | Luminosity | Snow |
|---|---|---|---|---|---|---|---|
| 1777761670 | 9.44° C | 94% | 1004.6 hPa | - | - | - | - |
| 1777759150 | 10° C | 88% | 1004.5 hPa | - | - | - | - |
| 1777757890 | 10.56° C | 85% | 1004.5 hPa | - | - | - | - |
| 1777756630 | 10.56° C | 83% | 1004.4 hPa | - | - | - | - |
| 1777755370 | 10.56° C | 90% | 1004.3 hPa | - | - | - | - |
| 1777754110 | 10.56° C | 92% | 1004.5 hPa | - | - | - | - |
| 1777751590 | 11.67° C | 73% | 1004.5 hPa | - | - | - | - |
| 1777750330 | 12.78° C | 56% | 1004.8 hPa | - | - | - | - |
| 1777749071 | 13.89° C | 47% | 1004.2 hPa | - | - | - | - |
| 1777747810 | 14.44° C | 46% | 1003.8 hPa | - | - | - | - |
| 1777745290 | 16.11° C | 42% | 1003.1 hPa | - | - | - | - |
| 1777744030 | 17.22° C | 40% | 1003.1 hPa | - | - | - | - |
| 1777742770 | 18.33° C | 34% | 1002.8 hPa | - | - | - | - |
| 1777741510 | 18.89° C | 32% | 1002.7 hPa | - | - | - | - |
| 1777740250 | 19.44° C | 28% | 1002.7 hPa | - | - | - | - |
| 1777738990 | 20° C | 26% | 1002.6 hPa | - | - | - | - |
| 1777737730 | 21.67° C | 25% | 1002.6 hPa | - | - | - | - |
| 1777736470 | 22.22° C | 24% | 1002.5 hPa | - | - | - | - |
| 1777732690 | 31.11° C | 17% | 1002.8 hPa | - | - | - | - |
| 1777731430 | 31.11° C | 16% | 1003 hPa | - | - | - | - |
| 1777730170 | 30.56° C | 15% | 1003.3 hPa | - | - | - | - |
| 1777728910 | 30° C | 16% | 1003.5 hPa | - | - | - | - |
| 1777726390 | 22.78° C | 22% | 1004 hPa | - | - | - | - |
| 1777725130 | 23.89° C | 21% | 1004.3 hPa | - | - | - | - |
| 1777723870 | 24.44° C | 18% | 1004.6 hPa | - | - | - | - |
* Rain since midnight (hover to see other rain measurements)
** Current wind speed in m/s (hover to see current wind gust speed)